FLOCK 4BE-31

Last updated on Mon Sep 16 2024 00:02:03 GMT+0000 (Coordinated Universal Time)

1 60488U 24149W 24258.90220640 .00020730 00000+0 10048-2 0 9996 2 60488 97.4436 334.0164 0004634 24.6984 335.4472 15.18541343 4414
UTC large
Height (km)
Speed (km/s)
/
Latitude / Longitude
Inclination (degrees)
Orbital Period (minutes)
Azimuth
Elevation
Range (km)
Doppler Factor

Next 0 passes for location: London (51.5072 / 0.1276)

Sorry there are no passes over London.